Le nostre stazioni meteo in Italia

Pubblicità
Il mio iltempo24.it
Grosseto, Italia (16206): Temperatura & dewpoint: 20.08.2019 12:00:00 - 26.08.2019 12:00:00 (CEST)Grosseto, Italia (16206): velocità del vento: 20.08.2019 12:00:00 - 26.08.2019 12:00:00 (CEST)Grosseto, Italia (16206): direzione del vento: 20.08.2019 12:00:00 - 26.08.2019 12:00:00 (CEST)Grosseto, Italia (16206): reduced air pressure: 20.08.2019 12:00:00 - 26.08.2019 12:00:00 (CEST)Grosseto, Italia (16206): visibility: 20.08.2019 12:00:00 - 26.08.2019 12:00:00 (CEST)
Data & Tempo tt [°C] td [°C] ff [km/h] ff [kn] dd ppp [hPa] vv [km]
26.08.2019 12:00:00 30,0 18,1 11 6 S 1016,8 15
26.08.2019 11:00:00 28,4 18,2 9 5 E 1016,7 15
26.08.2019 10:00:00 26,0 19,6 4 2 N 1016,4 12
26.08.2019 09:00:00 23,0 18,8 9 5 ENE 1017,3 8
26.08.2019 08:00:00 20,4 18,5 8 4 ENE 1016,2 8
26.08.2019 07:00:00 18,8 17,5 9 5 ENE 1015,9 10
26.08.2019 06:00:00 18,8 18,0 5 3 NE 1015,9 12
26.08.2019 05:00:00 18,8 18,0 8 4 ENE 1015,9 10
26.08.2019 04:00:00 19,8 18,1 4 2 NE 1016,1 10
26.08.2019 03:00:00 21,0 20,0 5 3 N 1016,0 10
26.08.2019 02:00:00 20,0 19,0 9 5 NNE 1016,2 10
26.08.2019 01:00:00 20,6 19,4 5 3 NNE 1016,2 10
26.08.2019 00:00:00 21,0 19,3 5 3 NNE 1016,3 12
25.08.2019 23:00:00 21,6 19,5 9 5 N 1016,1 12
25.08.2019 22:00:00 22,4 19,2 9 5 N 1016,0 12
25.08.2019 21:00:00 24,0 17,7 11 6 ENE 1015,7 15
25.08.2019 20:00:00 25,0 18,7 15 8 NNE 1015,6 20
25.08.2019 19:00:00 28,0 19,5 22 12 N 1015,5 15
25.08.2019 18:00:00 30,0 18,1 13 7 OSO 1015,0 15
25.08.2019 17:00:00 30,8 17,9 15 8 SSO 1014,8 20
25.08.2019 16:00:00 30,0 18,8 24 13 SO 1014,8 20
25.08.2019 15:00:00 30,4 18,2 22 12 SO 1015,1 30
25.08.2019 14:00:00 31,0 18,7 18 10 OSO 1015,8 30
25.08.2019 13:00:00 30,2 17,0 5 3 O 1016,0 30
25.08.2019 12:00:00 29,2 17,7 4 2 ESE 1016,5 30
25.08.2019 11:00:00 26,4 21,0 9 5 E 1016,6 30
25.08.2019 10:00:00 25,6 19,7 5 3 ENE 1016,6 25
25.08.2019 09:00:00 22,8 18,8 8 4 NE 1016,0 20
25.08.2019 08:00:00 20,0 17,4 11 6 NE 1015,9 20
25.08.2019 07:00:00 19,0 17,3 4 2 ENE 1015,9 20
25.08.2019 06:00:00 19,4 17,5 11 6 ENE 1015,6 20
25.08.2019 05:00:00 20,0 17,2 8 4 E 1015,7 20
25.08.2019 04:00:00 21,0 18,2 8 4 ENE 1015,8 20
25.08.2019 03:00:00 20,2 16,7 4 2 NE 1015,9 20
25.08.2019 02:00:00 22,0 18,4 8 4 ENE 1015,8 10
25.08.2019 01:00:00 22,0 18,4 5 3 ENE 1016,0 20
25.08.2019 00:00:00 22,0 18,2 4 2 NNO 1015,8 20
24.08.2019 23:00:00 22,0 18,0 9 5 NNE 1015,8 20
24.08.2019 22:00:00 24,0 18,0 8 4 N 1015,8 20
24.08.2019 21:00:00 25,0 17,5 8 4 N 1015,4 20
24.08.2019 20:00:00 27,4 17,9 8 4 N 1015,5 20
24.08.2019 19:00:00 27,8 18,5 11 6 O 1015,5 20
24.08.2019 18:00:00 29,4 17,3 16 9 OSO 1015,5 30
24.08.2019 17:00:00 29,6 19,0 13 7 SO 1015,8 30
24.08.2019 16:00:00 28,8 18,0 2 1 O 1016,1 30
24.08.2019 15:00:00 27,6 18,9 8 4 NNO 1016,7 20
24.08.2019 14:00:00 26,4 20,0 8 4 N 1017,2 20
24.08.2019 13:00:00 23,6 19,5 11 6 ENE 1017,4 20
24.08.2019 12:00:00 22,2 20,1 13 7 ENE 1018,0 15
24.08.2019 11:00:00 20,6 19,1 16 9 ENE 1017,9 12
24.08.2019 10:00:00 21,4 18,2 16 9 ENE 1018,0 10
24.08.2019 09:00:00 21,6 19,9 22 12 NE 1017,6 12
24.08.2019 08:00:00 21,6 19,2 13 7 ENE 1017,4 12
24.08.2019 07:00:00 23,0 18,6 5 3 NNE 1016,8 15
24.08.2019 06:00:00 23,0 18,1 4 2 E 1016,8 15
24.08.2019 05:00:00 23,8 18,0 9 5 NE 1016,8 15
24.08.2019 04:00:00 24,0 16,3 9 5 ENE 1016,8 15
24.08.2019 03:00:00 24,2 17,2 9 5 NE 1016,9 15
24.08.2019 02:00:00 24,4 17,2 9 5 ENE 1017,0 15
24.08.2019 01:00:00 24,4 17,4 9 5 NE 1017,0 15
24.08.2019 00:00:00 25,0 17,7 8 4 ENE 1017,0 15
23.08.2019 23:00:00 24,4 16,4 9 5 N 1017,1 15
23.08.2019 22:00:00 24,4 16,1 8 4 NNO 1017,3 15
23.08.2019 21:00:00 25,0 15,6 9 5 NO 1017,4 20
23.08.2019 20:00:00 27,0 16,3 15 8 ENE 1016,9 20
23.08.2019 19:00:00 28,0 19,3 18 10 N 1016,9 20
23.08.2019 18:00:00 29,0 17,5 18 10 NNO 1016,7 20
23.08.2019 17:00:00 29,2 17,4 9 5 NO 1016,7 20
23.08.2019 16:00:00 31,0 19,4 8 4 N 1016,8 20
23.08.2019 15:00:00 29,6 19,9 8 4 NNO 1017,7 20
23.08.2019 14:00:00 29,0 19,3 18 10 NNO 1018,4 20
23.08.2019 13:00:00 27,0 19,6 18 10 ONO 1019,0 20
23.08.2019 12:00:00 28,2 19,4 21 11 OSO 1018,7 20
23.08.2019 11:00:00 28,8 19,2 4 2 N 1017,8 20
23.08.2019 10:00:00 27,0 19,9 5 3 N 1017,8 20
23.08.2019 09:00:00 23,8 19,7 9 5 NNE 1017,8 30
23.08.2019 08:00:00 22,6 18,2 8 4 NE 1017,4 20
23.08.2019 07:00:00 22,0 19,0 5 3 NE - 10
23.08.2019 06:00:00 22,0 19,6 9 5 NNE 1017,4 15
23.08.2019 05:00:00 22,4 19,2 8 4 NE 1017,7 15
23.08.2019 04:00:00 - - - - - - -
23.08.2019 03:00:00 - - - - - - -
23.08.2019 02:00:00 23,0 18,5 8 4 E 1018,0 15
23.08.2019 01:00:00 23,4 18,7 9 5 NNE 1017,8 15
23.08.2019 00:00:00 24,2 18,6 8 4 N 1017,6 15
22.08.2019 23:00:00 24,2 18,8 9 5 N 1017,1 15
22.08.2019 22:00:00 23,6 18,5 5 3 N 1017,1 15
22.08.2019 21:00:00 24,2 19,1 9 5 N 1016,8 15
22.08.2019 20:00:00 27,0 19,1 16 9 NE 1017,2 20
22.08.2019 19:00:00 27,6 22,8 9 5 OSO 1016,7 25
22.08.2019 18:00:00 28,6 23,7 24 13 SO 1016,5 25
22.08.2019 17:00:00 29,4 22,1 21 11 SO 1016,1 25
22.08.2019 16:00:00 29,8 22,0 24 13 SO 1016,8 25
22.08.2019 15:00:00 30,0 21,4 26 14 SO 1017,3 25
22.08.2019 14:00:00 30,0 22,2 24 13 SO 1017,4 30
22.08.2019 13:00:00 30,0 23,0 15 8 SO 1017,4 25
22.08.2019 12:00:00 30,4 20,0 4 2 N 1017,5 25
22.08.2019 11:00:00 28,6 20,6 4 2 OSO 1017,7 12
22.08.2019 10:00:00 25,4 22,3 4 2 N 1017,6 10
22.08.2019 09:00:00 23,0 20,9 4 2 NNE 1017,4 8
22.08.2019 08:00:00 20,8 19,5 4 2 NE 1017,3 8
22.08.2019 07:00:00 19,8 18,1 5 3 N 1017,1 8
22.08.2019 06:00:00 20,4 18,7 4 2 NNE 1016,9 8
22.08.2019 05:00:00 20,8 19,5 5 3 NE 1016,9 12
22.08.2019 04:00:00 21,4 20,2 5 3 N 1016,8 15
22.08.2019 03:00:00 21,4 20,2 4 2 N 1016,9 15
22.08.2019 02:00:00 21,4 20,2 5 3 ONO 1017,1 15
22.08.2019 01:00:00 21,8 20,3 4 2 SE 1017,1 15
22.08.2019 00:00:00 22,8 21,4 4 2 E 1016,9 20
21.08.2019 23:00:00 22,8 21,8 5 3 SE 1017,1 20
21.08.2019 22:00:00 23,0 22,0 5 3 S 1016,8 30
21.08.2019 21:00:00 24,0 22,6 13 7 SSO 1016,5 10
21.08.2019 20:00:00 25,6 23,1 16 9 SO 1015,9 25
21.08.2019 19:00:00 27,0 23,3 18 10 SO 1015,8 30
21.08.2019 18:00:00 29,0 21,0 18 10 SO 1015,9 25
21.08.2019 17:00:00 30,0 16,8 21 11 SO 1016,0 30
21.08.2019 16:00:00 30,4 17,1 18 10 SO 1016,2 30
21.08.2019 15:00:00 31,2 17,1 18 10 SO 1016,7 30
21.08.2019 14:00:00 30,4 20,0 18 10 SO 1016,8 30
21.08.2019 13:00:00 31,2 17,9 15 8 SO 1017,0 30
21.08.2019 12:00:00 30,2 17,0 4 2 S 1017,4 30
21.08.2019 11:00:00 27,8 20,4 4 2 NNO 1017,6 30
21.08.2019 10:00:00 26,0 21,4 5 3 NNE 1017,7 20
21.08.2019 09:00:00 23,0 18,3 5 3 NNE 1017,8 20
21.08.2019 08:00:00 20,0 15,7 9 5 N 1017,1 20
21.08.2019 07:00:00 17,6 14,1 5 3 N 1016,9 20
21.08.2019 06:00:00 17,0 14,8 5 3 NNE 1016,9 20
21.08.2019 05:00:00 17,4 14,7 8 4 N 1016,9 20
21.08.2019 04:00:00 19,0 15,5 8 4 N 1016,9 20
21.08.2019 03:00:00 19,0 15,5 5 3 N 1016,9 20
21.08.2019 02:00:00 20,0 18,3 5 3 N 1016,9 20
21.08.2019 01:00:00 21,0 19,3 4 2 NE 1016,9 20
21.08.2019 00:00:00 21,6 20,3 4 2 SE 1016,8 20
20.08.2019 23:00:00 22,8 21,8 9 5 ESE 1016,8 20
20.08.2019 22:00:00 23,0 22,0 5 3 SE 1016,8 20
20.08.2019 21:00:00 24,0 21,9 8 4 SO 1016,2 40
20.08.2019 20:00:00 26,0 21,4 11 6 OSO 1015,9 50
20.08.2019 19:00:00 28,4 20,7 15 8 SO 1016,0 50
20.08.2019 18:00:00 29,2 20,9 18 10 SO 1016,1 50
20.08.2019 17:00:00 29,4 19,7 21 11 SO 1016,6 50
20.08.2019 16:00:00 30,6 15,1 22 12 SO 1016,7 50
20.08.2019 15:00:00 31,2 14,4 24 13 OSO 1016,7 50
20.08.2019 14:00:00 31,6 11,4 18 10 OSO 1017,0 50
20.08.2019 13:00:00 31,2 13,0 15 8 OSO 1017,1 50
20.08.2019 12:00:00 30,0 19,4 5 3 S 1017,3 50

tt = Temperatura
td = dewpoint
ff = velocità del vento
dd = direzione del vento
ppp = reduced air pressure
vv = visibility

Stazioni seguenti

WeatherPro
AMSI
MeteoEarth